Starlink 31146

operational
NORAD ID: 58769 Int'l Des: 2024-011 Owner: SPXS Country: US Constellation: starlink
LEOCIRCULAR

Starlink 31146について

説明を読み込み中...

リアルタイム位置

3D地球を読み込み中...

次回通過

高度履歴

Altitude vs Time

uPlot chart will show altitude changes over time

軌道要素

1 58769U 24011E 25258.00855311 .00001697 00000-0 69396-4 0 9998
2 58769 53.1590 109.6349 0001050 80.9567 279.1552 15.30197211 93376
Epoch: Sep 15, 2025 • Age: 21 hours

現在のステータス

高度 490.3 km
速度 7.62 km/s
衛星直下点 -43.13°S, 10.34°E
打ち上げ日 Jan 14, 2024
運用期間 1.6 years
タイプ internet

技術仕様

分類 Payload
質量 730.00 kg
乾燥質量 700.00 kg
総質量 730.00 kg
長さ 0.30 m
直径 4.10 m
スパン 29.00 m
形状 Box + pan
製造者 SPXS
バスタイプ Starlink V2M
フェーズステータス In Orbit
所有者/国 SPXS/US

大規模コンステレーション

Loading constellations...